GW1700 Weather Reports


Display with metric or nautical units.
time (UTC)temp
F
wind
direction
speed
MPH
gust
MPH
rain 1hr
in
rain 24hr
in
rain mn
in
humidity
%
barometer
mb
20260505062017 57 0 0.0 0.0 0.00 0.00 0.00 80 1015.1
20260505061539 57 0 0.0 0.0 0.00 0.00 0.00 80 1015.0
20260505061020 57 0 0.0 2.0 0.00 0.00 0.00 79 1015.0
20260505060518 58 0 0.0 2.0 0.00 0.00 0.00 79 1014.9
20260505060037 58 0 0.0 3.0 0.00 0.00 0.00 78 1014.9
20260505055520 58 0 0.0 3.0 0.00 0.00 0.00 78 1014.8
20260505055015 58 0 0.0 3.0 0.00 0.00 0.00 77 1014.8
20260505054538 59 0 0.0 1.0 0.00 0.00 0.00 76 1014.7
20260505054017 59 0 0.0 2.0 0.00 0.00 0.00 76 1014.7
20260505053518 59 0 0.0 2.0 0.00 0.00 0.00 75 1014.7
20260505053037 60 0 0.0 4.0 0.00 0.00 0.00 75 1014.7
20260505052521 60 0 0.0 4.0 0.00 0.00 0.00 74 1014.6
20260505052020 60 287 1.0 4.0 0.00 0.00 0.00 73 1014.6
20260505051536 60 254 1.0 4.0 0.00 0.00 0.00 73 1014.4
20260505051019 61 244 1.0 4.0 0.00 0.00 0.00 73 1014.4
20260505050518 61 227 0.0 5.0 0.00 0.00 0.00 72 1014.4
20260505050117 61 251 1.0 8.0 0.00 0.00 0.00 71 1014.3
20260505041549 64 244 2.0 9.0 0.00 0.00 0.00 67 1013.8
20260505041018 64 219 3.0 9.0 0.00 0.00 0.00 66 1013.8
20260505040520 65 273 3.0 9.0 0.00 0.00 0.00 66 1013.6
20260505040034 65 220 4.0 9.0 0.00 0.00 0.00 65 1013.6
20260505035518 65 211 3.0 8.0 0.00 0.00 0.00 65 1013.6
20260505035018 66 225 3.0 8.0 0.00 0.00 0.00 64 1013.5
20260505034537 66 222 3.0 8.0 0.00 0.00 0.00 64 1013.3
20260505034020 67 313 2.0 10.0 0.00 0.00 0.00 63 1013.2
20260505033518 67 223 1.0 10.0 0.00 0.00 0.00 62 1013.2
20260505033042 67 267 4.0 10.0 0.00 0.00 0.00 61 1013.1
20260505032523 68 229 3.0 8.0 0.00 0.00 0.00 60 1013.1
20260505032019 68 273 4.0 8.0 0.00 0.00 0.00 59 1013.0
20260505031544 69 244 1.0 7.0 0.00 0.00 0.00 58 1012.9
20260505031018 69 246 2.0 9.0 0.00 0.00 0.00 57 1012.9
20260505030518 70 277 2.0 9.0 0.00 0.00 0.00 57 1012.8
20260505030040 70 225 2.0 9.0 0.00 0.00 0.00 56 1012.7
20260505025518 71 254 3.0 9.0 0.00 0.00 0.00 55 1012.7
20260505025020 71 274 2.0 7.0 0.00 0.00 0.00 55 1012.6
20260505024530 72 262 2.0 10.0 0.00 0.00 0.00 55 1012.5
20260505024018 72 250 2.0 10.0 0.00 0.00 0.00 55 1012.5
20260505023519 73 252 3.0 9.0 0.00 0.00 0.00 54 1012.5
20260505023043 73 261 2.0 7.0 0.00 0.00 0.00 54 1012.4
20260505022521 73 106 1.0 6.0 0.00 0.00 0.00 53 1012.4
20260505022018 74 0 0.0 8.0 0.00 0.00 0.00 52 1012.4
20260505021540 74 0 3.0 8.0 0.00 0.00 0.00 51 1012.4
20260505021018 75 0 2.0 7.0 0.00 0.00 0.00 50 1012.4
20260505020518 76 296 2.0 8.0 0.00 0.00 0.00 49 1012.5
20260505020036 76 212 2.0 8.0 0.00 0.00 0.00 47 1012.4
20260505015518 76 236 1.0 5.0 0.00 0.00 0.00 47 1012.5
20260505015018 76 271 1.0 6.0 0.00 0.00 0.00 47 1012.4
20260505014553 76 250 1.0 10.0 0.00 0.00 0.00 46 1012.4
20260505014018 76 226 2.0 10.0 0.00 0.00 0.00 46 1012.4
20260505013522 77 213 1.0 7.0 0.00 0.00 0.00 45 1012.4
20260505013031 77 246 1.0 10.0 0.00 0.00 0.00 44 1012.5
20260505012518 77 215 4.0 10.0 0.00 0.00 0.00 44 1012.4
20260505012018 77 282 2.0 7.0 0.00 0.00 0.00 44 1012.4
20260505011537 77 5 1.0 4.0 0.00 0.00 0.00 43 1012.5
20260505011021 77 246 1.0 8.0 0.00 0.00 0.00 43 1012.5
20260505010517 78 0 0.0 8.0 0.00 0.00 0.00 41 1012.5
20260505010036 78 235 4.0 8.0 0.00 0.00 0.00 40 1012.5
20260505005519 78 281 1.0 6.0 0.00 0.00 0.00 38 1012.6
20260505005019 78 290 1.0 5.0 0.00 0.00 0.00 39 1012.6
20260505004539 78 333 1.0 7.0 0.00 0.00 0.00 35 1012.6
20260505004018 78 0 0.0 7.0 0.00 0.00 0.00 37 1012.7
20260505003518 78 251 1.0 6.0 0.00 0.00 0.00 35 1012.6
20260505003035 79 241 2.0 8.0 0.00 0.00 0.00 35 1012.6
20260505002518 79 261 1.0 8.0 0.00 0.00 0.00 35 1012.5
20260505002018 79 278 2.0 11.0 0.00 0.00 0.00 36 1012.5
20260505001530 79 242 4.0 11.0 0.00 0.00 0.00 36 1012.6
20260505001017 80 257 4.0 10.0 0.00 0.00 0.00 35 1012.5
20260505000520 80 234 3.0 10.0 0.00 0.00 0.00 35 1012.5
20260505000040 79 231 3.0 10.0 0.00 0.00 0.00 34 1012.6
20260504235519 80 252 5.0 10.0 0.00 0.00 0.00 34 1012.5
20260504235019 80 213 1.0 9.0 0.00 0.00 0.00 33 1012.5
20260504234546 80 309 2.0 9.0 0.00 0.00 0.00 32 1012.5
20260504234018 80 251 3.0 9.0 0.00 0.00 0.00 31 1012.5
20260504233518 79 274 3.0 9.0 0.00 0.00 0.00 31 1012.6
20260504233035 79 34 2.0 7.0 0.00 0.00 0.00 34 1012.5
20260504232520 79 273 2.0 6.0 0.00 0.00 0.00 34 1012.5
20260504232018 79 273 2.0 9.0 0.00 0.00 0.00 33 1012.5
20260504231537 79 182 3.0 11.0 0.00 0.00 0.00 31 1012.7
20260504231018 79 217 5.0 11.0 0.00 0.00 0.00 32 1012.7
20260504230518 79 296 5.0 10.0 0.00 0.00 0.00 32 1012.8
20260504230031 80 249 2.0 9.0 0.00 0.00 0.00 32 1012.8
20260504225518 79 215 2.0 8.0 0.00 0.00 0.00 34 1012.9
20260504225017 79 254 3.0 9.0 0.00 0.00 0.00 33 1013.0
20260504224536 80 350 1.0 9.0 0.00 0.00 0.00 34 1013.0
20260504224019 79 244 1.0 7.0 0.00 0.00 0.00 35 1013.0
20260504223518 79 292 2.0 7.0 0.00 0.00 0.00 36 1013.0
20260504223042 78 220 3.0 7.0 0.00 0.00 0.00 38 1013.0
20260504222518 78 258 1.0 9.0 0.00 0.00 0.00 38 1013.1
20260504222019 78 313 2.0 9.0 0.00 0.00 0.00 37 1013.1
20260504221537 78 11 2.0 6.0 0.00 0.00 0.00 39 1013.1
20260504221018 79 46 2.0 9.0 0.00 0.00 0.00 39 1013.2
20260504220518 79 226 3.0 10.0 0.00 0.00 0.00 39 1013.2
20260504220036 79 24 2.0 10.0 0.00 0.00 0.00 39 1013.3
20260504215518 78 231 2.0 10.0 0.00 0.00 0.00 39 1013.2
20260504215017 78 238 3.0 11.0 0.00 0.00 0.00 38 1013.3
20260504214536 78 0 1.0 12.0 0.00 0.00 0.00 41 1013.3
20260504214018 78 230 6.0 12.0 0.00 0.00 0.00 39 1013.3
20260504213518 78 202 2.0 9.0 0.00 0.00 0.00 42 1013.3
20260504213054 78 226 4.0 10.0 0.00 0.00 0.00 40 1013.3
20260504212518 78 228 5.0 10.0 0.00 0.00 0.00 41 1013.4
20260504212018 77 5 4.0 10.0 0.00 0.00 0.00 44 1013.4
20260504211538 77 236 1.0 11.0 0.00 0.00 0.00 42 1013.5
20260504211021 77 246 6.0 13.0 0.00 0.00 0.00 42 1013.4
20260504210518 78 0 4.0 13.0 0.00 0.00 0.00 44 1013.5
20260504210038 77 229 4.0 13.0 0.00 0.00 0.00 42 1013.5
20260504205518 78 242 5.0 11.0 0.00 0.00 0.00 42 1013.6
20260504205018 78 266 3.0 9.0 0.00 0.00 0.00 41 1013.7
20260504204534 78 230 2.0 9.0 0.00 0.00 0.00 41 1013.6
20260504204018 78 279 4.0 9.0 0.00 0.00 0.00 43 1013.6
20260504203518 78 223 3.0 9.0 0.00 0.00 0.00 43 1013.6
20260504203035 78 136 2.0 10.0 0.00 0.00 0.00 43 1013.6
20260504202518 77 247 4.0 10.0 0.00 0.00 0.00 45 1013.6
20260504202017 78 220 3.0 8.0 0.00 0.00 0.00 43 1013.6
20260504201534 78 211 3.0 8.0 0.00 0.00 0.00 43 1013.6
20260504201022 77 267 2.0 8.0 0.00 0.00 0.00 45 1013.6
20260504200518 76 247 2.0 7.0 0.00 0.00 0.00 47 1013.7
20260504200036 76 360 1.0 11.0 0.00 0.00 0.00 45 1013.7
20260504195518 76 246 3.0 11.0 0.00 0.00 0.00 44 1013.8
20260504195018 77 236 3.0 11.0 0.00 0.00 0.00 40 1013.9
20260504194542 77 82 1.0 7.0 0.00 0.00 0.00 42 1013.8
20260504194018 77 316 3.0 7.0 0.00 0.00 0.00 41 1013.8
20260504193519 77 106 2.0 8.0 0.00 0.00 0.00 42 1013.9
20260504193043 77 263 1.0 8.0 0.00 0.00 0.00 42 1013.9
20260504192518 76 227 3.0 7.0 0.00 0.00 0.00 43 1013.9
20260504192018 76 0 2.0 7.0 0.00 0.00 0.00 43 1014.0
20260504191534 77 27 3.0 7.0 0.00 0.00 0.00 42 1014.0
20260504191021 77 318 1.0 8.0 0.00 0.00 0.00 43 1014.0
20260504190519 76 137 2.0 8.0 0.00 0.00 0.00 42 1014.0
20260504190033 75 209 4.0 8.0 0.00 0.00 0.00 44 1014.1
20260504185522 75 235 2.0 6.0 0.00 0.00 0.00 44 1014.0
20260504185019 74 201 1.0 9.0 0.00 0.00 0.00 44 1014.1
20260504184536 74 222 3.0 9.0 0.00 0.00 0.00 45 1014.2
20260504184019 74 248 1.0 7.0 0.00 0.00 0.00 48 1014.1
20260504183519 73 0 0.0 9.0 0.00 0.00 0.00 50 1014.2
20260504183035 73 231 4.0 9.0 0.00 0.00 0.00 49 1014.3
20260504182523 74 269 2.0 8.0 0.00 0.00 0.00 45 1014.3
20260504182020 74 42 1.0 5.0 0.00 0.00 0.00 49 1014.2
20260504181535 73 254 0.0 6.0 0.00 0.00 0.00 47 1014.3
20260504181018 72 236 1.0 7.0 0.00 0.00 0.00 48 1014.3
20260504180520 73 218 3.0 7.0 0.00 0.00 0.00 45 1014.3
20260504180035 73 0 2.0 7.0 0.00 0.00 0.00 48 1014.2
20260504175518 72 219 2.0 8.0 0.00 0.00 0.00 50 1014.2
20260504175023 72 224 2.0 8.0 0.00 0.00 0.00 51 1014.2
20260504174536 71 257 2.0 8.0 0.00 0.00 0.00 52 1014.2
20260504174019 71 293 2.0 8.0 0.00 0.00 0.00 53 1014.1
20260504173519 71 220 2.0 6.0 0.00 0.00 0.00 52 1014.2
20260504173045 70 255 0.0 6.0 0.00 0.00 0.00 55 1014.2
20260504172518 70 215 2.0 7.0 0.00 0.00 0.00 55 1014.1
20260504172018 69 263 3.0 7.0 0.00 0.00 0.00 54 1014.1
20260504171535 69 232 1.0 6.0 0.00 0.00 0.00 55 1014.1
20260504171019 69 229 2.0 6.0 0.00 0.00 0.00 55 1014.1
20260504170518 69 248 2.0 6.0 0.00 0.00 0.00 54 1014.1
20260504151018 64 0 0.0 2.0 0.00 0.00 0.00 59 1013.7
20260504150518 64 0 0.0 0.0 0.00 0.00 0.00 61 1013.6
20260504141020 56 0 0.0 0.0 0.00 0.00 0.00 73 1013.2
20260504140519 55 0 0.0 0.0 0.00 0.00 0.00 76 1013.2
20260504130520 52 0 0.0 1.0 0.00 0.00 0.00 79 1012.7
20260504110519 54 0 0.0 0.0 0.00 0.00 0.00 75 1012.5
20260504100518 55 0 0.0 0.0 0.00 0.00 0.00 72 1012.4
20260504081533 59 0 1.0 3.0 0.00 0.00 0.00 67 1012.5
20260504081016 59 93 1.0 3.0 0.00 0.00 0.00 66 1012.5
20260504080516 60 0 0.0 2.0 0.00 0.00 0.00 64 1012.6